DW4070 Weather Reports


time (UTC)temp
C
wind
direction
speed
KPH
gust
KPH
rain 1hr
cm
rain 24hr
cm
rain mn
cm
humidity
%
barometer
mb
20260502224552 14 265 0.0 3.2 0.00 0.13 0.13 42 1011.5
20260502223052 14 265 0.0 6.4 0.00 0.13 0.13 42 1011.4
20260502221650 14 262 0.0 3.2 0.00 0.13 0.13 45 1011.3
20260502220050 14 28 0.0 3.2 0.00 0.13 0.13 46 1011.2
20260502214548 14 78 0.0 3.2 0.00 0.13 0.13 46 1011.3
20260502213101 14 128 0.0 3.2 0.00 0.13 0.13 48 1011.3
20260502211547 14 55 0.0 3.2 0.00 0.13 0.13 51 1011.3
20260502210046 14 20 1.6 8.0 0.00 0.13 0.13 48 1011.2
20260502204546 14 9 0.0 4.8 0.00 0.13 0.13 49 1011.2
20260502203045 14 286 0.0 4.8 0.00 0.13 0.13 48 1011.2
20260502201542 15 202 1.6 3.2 0.00 0.13 0.13 54 1011.5
20260502194553 14 284 0.0 3.2 0.00 0.13 0.13 53 1011.9
20260502193035 14 284 0.0 0.0 0.00 0.13 0.13 56 1012.2
20260502191534 14 336 1.6 4.8 0.00 0.13 0.13 56 1012.4
20260502190033 13 40 1.6 8.0 0.00 0.13 0.13 59 1012.5
20260502184531 13 138 1.6 4.8 0.00 0.13 0.13 65 1012.6
20260502183036 12 348 0.0 3.2 0.00 0.13 0.13 66 1012.9
20260502181628 12 32 0.0 4.8 0.00 0.13 0.13 66 1012.8
20260502163022 13 263 0.0 3.2 0.00 0.13 0.13 66 1013.0
20260502161521 13 236 0.0 9.7 0.00 0.13 0.13 65 1013.1
20260502151514 12 269 0.0 0.0 0.00 0.13 0.13 72 1013.4
20260502130105 10 269 0.0 0.0 0.00 0.13 0.13 91 1014.0
20260502123052 9 269 0.0 0.0 0.00 0.13 0.13 93 1013.9
20260502121600 9 269 0.0 0.0 0.00 0.13 0.13 94 1013.7
20260502120110 8 269 0.0 0.0 0.00 0.13 0.13 94 1013.8
20260502114554 8 269 0.0 0.0 0.00 0.13 0.13 94 1013.9
20260502113108 8 269 0.0 0.0 0.03 0.13 0.13 94 1013.9
20260502111548 8 269 0.0 0.0 0.08 0.13 0.13 94 1013.6
20260502110047 8 269 0.0 0.0 0.13 0.13 0.13 94 1013.4
20260502104543 8 269 0.0 0.0 0.13 0.13 0.13 94 1013.2
20260502103106 8 269 0.0 0.0 0.08 0.08 0.08 94 1013.5
20260502101549 8 269 0.0 0.0 0.05 0.05 0.05 93 1013.6
20260502071534 7 269 0.0 0.0 0.00 0.00 0.00 90 1013.1
20260502070027 7 269 0.0 0.0 0.00 0.00 0.00 89 1013.2
20260502064526 7 269 0.0 0.0 0.00 0.00 0.00 89 1013.1
20260502063025 7 269 0.0 0.0 0.00 0.00 0.00 88 1013.2
20260502061523 8 269 0.0 0.0 0.00 0.00 0.00 89 1013.3
20260502060022 8 269 0.0 0.0 0.00 0.00 0.00 88 1013.4
20260502054521 8 269 0.0 0.0 0.00 0.00 0.00 88 1013.4
20260502053022 8 269 0.0 0.0 0.00 0.00 0.00 88 1013.3
20260502051520 7 269 0.0 0.0 0.00 0.00 0.00 88 1013.3
20260502050017 7 269 0.0 0.0 0.00 0.00 0.00 87 1013.5
20260502044518 7 269 0.0 0.0 0.00 0.00 0.00 87 1013.6
20260502043018 7 269 0.0 0.0 0.00 0.00 0.00 88 1013.8
20260502041511 7 269 0.0 0.0 0.00 0.00 0.00 88 1013.6
20260502040010 7 269 0.0 0.0 0.00 0.00 0.00 86 1013.6
20260502034510 7 269 0.0 0.0 0.00 0.00 0.00 86 1013.5
20260502033010 7 269 0.0 0.0 0.00 0.00 0.00 85 1013.6
20260502031509 7 269 0.0 0.0 0.00 0.00 0.00 84 1013.9
20260502030009 8 269 0.0 0.0 0.00 0.00 0.00 82 1013.9
20260502024508 8 269 0.0 0.0 0.00 0.00 0.00 80 1014.0
20260502023007 8 269 0.0 0.0 0.00 0.00 0.00 79 1013.8
20260502021506 9 269 0.0 0.0 0.00 0.00 0.00 77 1013.9
20260502020005 10 269 0.0 0.0 0.00 0.00 0.00 76 1013.9
20260502014504 10 269 0.0 0.0 0.00 0.00 0.00 73 1013.9
20260502013004 11 269 0.0 0.0 0.00 0.00 0.00 71 1013.7
20260502011503 11 269 0.0 0.0 0.00 0.00 0.00 69 1013.7
20260502010003 11 269 0.0 0.0 0.00 0.00 0.00 67 1013.6
20260502004502 12 269 0.0 3.2 0.00 0.00 0.00 65 1013.5
20260502003001 12 269 0.0 3.2 0.00 0.00 0.00 64 1013.3
20260502001503 12 269 0.0 4.8 0.00 0.00 0.00 64 1013.1
20260502000001 12 269 0.0 4.8 0.00 0.00 0.00 66 1012.9
20260501234601 12 269 0.0 4.8 0.00 0.00 0.00 63 1012.8
20260501233103 12 269 1.6 4.8 0.00 0.00 0.00 61 1012.5
20260501231559 12 262 3.2 8.0 0.00 0.00 0.00 60 1012.5